Terminal Aerodrome Forecast
Issued by NWS Charleston, WV

Current Version | Previous Version | Graphics & Text | Print | Product List | Glossary On
Versions: 1 2 3 4 5 6 7 8 9 10 11 12 13 14 15 16 17 18 19 20 21 22 23 24
289
FTUS41 KRLX 240922 AAA
TAFEKN
TAF AMD
KEKN 240922Z 2409/2506 30005KT 6SM -RA BR BKN015 BKN035
     FM241200 29006KT P6SM BKN008
     FM241700 28007KT P6SM SCT025=

USA.gov is the U.S. government's official web portal to all federal, state and local government web resources and services.